Regional Weather Roundup
Issued by NWS

Home | Current Version | Previous Version | Text Only | Print | Product List | Glossary On
Versions: 1 2 3 4 5 6 7 8 9 10 11 12 13 14 15 16 17 18 19 20 21 22 23 24 25 26 27 28 29 30 31 32 33 34 35 36 37 38 39 40 41 42 43 44 45 46 47 48 49 50
000
ASUS43 KDTX 281701
RWRMI
MICHIGAN HOURLY REGIONAL WEATHER ROUNDUP
NATIONAL WEATHER SERVICE DETROIT/PONTIAC MI
1200 PM EST FRI NOV 28 2014

NOTE: "FAIR" INDICATES FEW OR NO CLOUDS BELOW 12,000 FEET WITH NO
SIGNIFICANT WEATHER AND/OR OBSTRUCTION TO VISIBILITY.

MIZ047>049-052>055-059>063-066>070-074>076-081>083-281800-
SOUTHEAST LOWER MICHIGAN

CITY           SKY/WX    TMP DP  RH WIND       PRES   REMARKS
ADRIAN         PTSUNNY   26  18  71 SW12      30.29F WCI  16
ALMA           CLOUDY    24  15  68 S7        30.24F WCI  16
ANN ARBOR      MOSUNNY   25  14  63 S9        30.27F WCI  15
BAD AXE        PTSUNNY   22  13  67 SW6       30.25F WCI  15
DETROIT CITY   MOSUNNY   27   9  46 S9        30.28F WCI  18
DETROIT        PTSUNNY   26  12  55 S10       30.30F WCI  16
FLINT          CLOUDY    26  12  55 SW9       30.26F WCI  17
GROSSE ILE     MOSUNNY   27  14  59 S9        30.28F WCI  17
HILLSDALE      PTSUNNY   25  15  63 SW8       30.24F WCI  17
HOWELL         PTSUNNY   25  14  63 S10       30.24F WCI  15

CITY           SKY/WX    TMP DP  RH WIND       PRES   REMARKS
JACKSON        PTSUNNY   25  16  68 S10       30.24F WCI  15
LAMBERTVILLE   MOSUNNY   28  18  64 S5        30.30F WCI  23
LANSING        LGT SNOW  24  16  71 S10       30.25F WCI  14
LAPEER         FAIR      24  11  57 SW9       30.25F WCI  14
MASON          CLOUDY    25  16  68 S7        30.24F WCI  18
MONROE         MOSUNNY   27  18  69 CALM      30.28F
MT. CLEMENS    PTSUNNY   25   9  50 SW6       30.25F WCI  18
PONTIAC        PTSUNNY   23   9  55 S8        30.24F WCI  14
PORT HOPE        N/A     23   9  55 W5        30.23F WCI  17
PORT HURON     MOSUNNY   23  10  58 SW5       30.27F WCI  17
TRI CITIES     CLOUDY    24  11  57 S10       30.25F WCI  14
TROY           PTSUNNY   26   9  48 S7        30.29F WCI  18
SAGINAW HB     PTSUNNY   27  14  59 SW9       30.25F WCI  17
$$
MIZ043>046-050>051-056>058-064>065-071>073-077>080-281800-
SOUTHWEST LOWER MICHIGAN

CITY           SKY/WX    TMP DP  RH WIND       PRES   REMARKS
BATTLE CREEK   CLOUDY    26  14  60 S13       30.24F WCI  15
BENTON HARBOR  CLOUDY    22  17  81 S15       30.23F WCI   9
BIG RAPIDS     FLURRIES  22  18  85 S6        30.18F WCI  15
COLDWATER      CLOUDY    27  16  63 S8G16     30.25F WCI  18
FREMONT        LGT SNOW  24  20  84 S6        30.19F WCI  17
HOLLAND        CLOUDY    26  14  60 S15       30.23F WCI  14
GRAND RAPIDS   CLOUDY    25  15  66 S13       30.22F WCI  14
IONIA          FLURRIES  26  20  79 S8        30.22F WCI  17
KALAMAZOO      CLOUDY    24  16  71 S12       30.24F WCI  13
LUDINGTON      LGT SNOW  22  19  87 SE7       30.18F WCI  14
MARSHALL       CLOUDY    24  13  63 SW9       30.24F WCI  14
MOUNT PLEASANT FLURRIES  24  14  65 S8        30.22F WCI  15
MUSKEGON       LGT SNOW  24  19  81 SE12      30.21F VSB 3/4 WCI  13
SOUTH HAVEN    CLOUDY    24  16  72 S13G21    30.23F WCI  13
$$
MIZ016>042-281800-
NORTHERN LOWER MICHIGAN

CITY           SKY/WX    TMP DP  RH WIND       PRES   REMARKS
ALPENA         CLOUDY    21  12  68 SW7       30.21F WCI  12
BEAVER ISLAND  CLOUDY    25  16  67 SW6       30.16F WCI  18
BELLAIRE       CLOUDY    22  15  75 S7        30.20F WCI  14
CADILLAC       FLURRIES  19  15  83 S8        30.14F WCI   9
CHARLEVOIX     FLURRIES  22  17  80 S7        30.20F WCI  13
FRANKFORT      LGT SNOW  23  19  84 S10       30.17F WCI  12
GAYLORD        CLOUDY    17  11  77 SW10      30.15F WCI   5
GRAYLING       CLOUDY    19  14  79 S5        30.17F WCI  13
HARBOR SPRINGS CLOUDY    22  16  78 S9        30.17F WCI  11
HOUGHTON LAKE  CLOUDY    19  13  77 S9        30.19F WCI   8
MANISTEE       CLOUDY    21  16  79 S7        30.18F WCI  13
OSCODA         PTSUNNY   23  13  65 SW10      30.23F WCI  12
PELLSTON       LGT SNOW  21  18  88 SE5       30.18F FOG     WCI  15
ROGERS CITY    CLOUDY    20  16  82 SW7       30.20F WCI  12
TRAVERSE CITY  CLOUDY    23  15  71 VRB7      30.18F WCI  15
$$
MIZ007>008-015-281800-
EASTERN UPPER MICHIGAN

CITY           SKY/WX    TMP DP  RH WIND       PRES   REMARKS
KINROSS        CLOUDY    16  12  86 SE3       30.18F
MACKINAC ISLAN LGT SNOW  22  19  87 N5        30.17F WCI  16
NEWBERRY       CLOUDY    14   7  74 SW6       30.15F WCI   5
S. S. MARIE    CLOUDY    10   4  76 SE5       30.18F WCI   2
MUNISING         N/A     16   4  59 S7        30.14F WCI   6
$$
MIZ004>006-011>014-085-281800-
CENTRAL UPPER MICHIGAN

CITY           SKY/WX    TMP DP  RH WIND       PRES   REMARKS
MANISTIQUE     CLOUDY    17   9  71 CALM      30.16F
ESCANABA       CLOUDY    16   1  53 W9        30.14F WCI   4
MENOMINEE      PTSUNNY   16   9  73 CALM      30.15F
SAWYER-GWINN   CLOUDY    12   5  73 SW9       30.08F WCI   0
$$
MIZ001>003-009>011-084-281800-
WESTERN UPPER MICHIGAN

CITY           SKY/WX    TMP DP  RH WIND       PRES   REMARKS
IRON MOUNTAIN  LGT SNOW  11   6  81 S5        30.08F VSB 3/4 WCI   3
HOUGHTON       CLOUDY    10   2  69 SW5       30.06F WCI   2
COPPER HARBOR    N/A     16   2  54 SW9       30.08F WCI   4
IRONWOOD       CLOUDY    10   9  92 SE6       29.99F WCI   1
$$

ABBREVIATIONS USED IN REMARKS
   TC - TEMPERATURE IN CELSIUS
  WCI - WIND CHILL INDEX
   HX - HEAT INDEX
  VSB - VISIBILITY




USA.gov is the U.S. government's official web portal to all federal, state and local government web resources and services.